Regional Weather Roundup
Issued by NWS

Home | Current Version | Previous Version | Graphics & Text | Print | Product List | Glossary On
Versions: 1 2 3 4 5 6 7 8 9 10 11 12 13 14 15 16 17 18 19 20 21 22 23 24 25 26 27 28 29 30 31 32 33 34 35 36 37 38 39 40 41 42 43 44 45 46 47 48 49 50
000
ASUS43 KLOT 230006
RWRIL

ILLINOIS REGIONAL WEATHER ROUNDUP
NATIONAL WEATHER SERVICE CHICAGO/ROMEOVILLE IL
600 PM CST MON DEC 22 2014

NOTE: "FAIR" INDICATES FEW OR NO CLOUDS BELOW 12,000 FEET WITH NO
SIGNIFICANT WEATHER AND/OR OBSTRUCTIONS TO VISIBILITY.

* THESE STATIONS ARE NOT UNDER NWS QUALITY CONTROL. THEY ALSO MAY NOT
  REPORT WEATHER SUCH AS PRECIPITATION OR FOG.

ILZ001-002-007-009-015-016-024-230100-
NORTHWEST ILLINOIS

CITY           SKY/WX    TMP DP  RH WIND       PRES   REMARKS
MOLINE         CLOUDY    39  38  96 E7        29.55F FOG     WCI  34
6HR MIN TEMP:  36; 6HR MAX TEMP:  39; 6HR PCP:  0.09;

STERLING*      CLOUDY    37  36  93 E12       29.59F WCI  30
SAVANNA*       CLOUDY    38  37  94 SE9       29.59S FOG     WCI  32
$$

ILZ003-004-008-010-011-017-018-230100-
NORTH CENTRAL ILLINOIS

CITY           SKY/WX    TMP DP  RH WIND       PRES   REMARKS
ROCKFORD       LGT RAIN  38  36  92 E10       29.64F FOG     WCI  31
6HR MIN TEMP:  35; 6HR MAX TEMP:  38; 6HR PCP:  0.19;

FREEPORT*      CLOUDY    36  36  99 E13       29.62F FOG     WCI  27
ROCHELLE*      LGT RAIN  37  37  99 SE14      29.62F WCI  28
DE KALB*       DRIZZLE   37  37  99 SE10      29.64S WCI  30
PERU*          CLOUDY    41  40  97 SE12      29.61F FOG
$$

ILZ005-006-012>014-019>023-230100-
NORTHEAST ILLINOIS

CITY           SKY/WX    TMP DP  RH WIND       PRES   REMARKS
CHICAGO-OHARE  LGT RAIN  39  37  92 E15       29.67F FOG     WCI  31
6HR MIN TEMP:  35; 6HR MAX TEMP:  39; 6HR PCP:  0.21;

CHICAGO-MIDWAY LGT RAIN  42  39  89 SE13      29.68F FOG
6HR MIN TEMP:  37; 6HR MAX TEMP:  42; 6HR PCP:  0.20;

AURORA         LGT RAIN  42  39  89 SE13      29.63F FOG
6HR MIN TEMP:  37; 6HR MAX TEMP:  42; 6HR PCP:  0.17;

LANSING*       LGT RAIN  40  39  96 SE15      29.69F
JOLIET*        LGT RAIN  40  39  95 SE15G23   29.65F
WAUKEGAN       LGT RAIN  37  36  96 SE12G20   29.69F FOG     WCI  29
6HR MIN TEMP:  34; 6HR MAX TEMP:  37; 6HR PCP:  0.25;

DUPAGE AIRPORT LGT RAIN  41  39  93 E10       29.64F FOG
6HR MIN TEMP:  36; 6HR MAX TEMP:  41; 6HR PCP:  0.14;

KANKAKEE*      LGT RAIN  39  39  98 SE15      29.66F WCI  31
WHEELING       LGT RAIN  38  37  97 E8        29.70F FOG     WCI  32
6HR MIN TEMP:  35; 6HR MAX TEMP:  38; 6HR PCP:  0.22;

MORRIS*        RAIN      42  42  99 SE16      29.63S
ROMEOVILLE*    LGT RAIN  40  40 100 SE14      29.65F
NORTHERLY ISL    N/A     37  36  96 E10         N/A  WCI  30
$$

LMZ740>746-230100-
SOUTHERN LAKE MICHIGAN

STATION/POSITION SKY/WX   TEMP    WIND        PRES    VSBY  WAVE
                          AIR SEA DIR/SP/G                  HT/PER
                          (F)     (DEG/KT/KT) (MB)    (MI)  (FT/S)
WAUKEGAN HARBOR            37     140/ 13/ 16   N/A
HARRISON CRIB              38     120/ 18/ 21   N/A
BURNHAM HARBOR             37     110/  9/ 12   N/A
CALUMET HARBOR             40     110/ 14/ 17 1004.3F
$$

ILZ025>027-034>036-040-047-049-050-058-095>099-230100-
WEST-CENTRAL ILLINOIS

CITY           SKY/WX    TMP DP  RH WIND       PRES   REMARKS
QUINCY         LGT RAIN  44  43  96 SE9       29.50F FOG
GALESBURG*     CLOUDY    41  41 100 E7        29.54F FOG
MACOMB*        LGT RAIN  42  42 100 SE10      29.55F
JACKSONVILLE*  CLOUDY    47  45  94 SE10      29.54F
PITTSFIELD*    CLOUDY    46  44  93 SE12      29.53F
$$

ILZ028>032-037-038-041>044-048-051>054-059>061-230100-
CENTRAL ILLINOIS

CITY           SKY/WX    TMP DP  RH WIND       PRES   REMARKS
PONTIAC        LGT RAIN  42  42  99 SE13      29.63S
BLOOMINGTON    LGT RAIN  44  44 100 SE14      29.60F FOG
DECATUR        CLOUDY    47  45  93 SE15G22   29.60S
PEORIA         LGT RAIN  45  42  89 SE8       29.58S FOG
6HR MIN TEMP:  39; 6HR MAX TEMP:  45; 6HR PCP:  0.14;

LACON*         CLOUDY    41  40  95 SE12      29.58F FOG
LINCOLN*       RAIN      46  45  94 SE8       29.58F
SPRINGFIELD    LGT RAIN  47  46  97 SE14      29.57F
6HR MIN TEMP:  43; 6HR MAX TEMP:  47; 6HR PCP:  0.22;

TAYLORVILLE    RAIN      45  45 100 SE9       29.57F
$$

ILZ033-039-045-046-055>057-062-063-230100-
EAST-CENTRAL ILLINOIS

CITY           SKY/WX    TMP DP  RH WIND       PRES   REMARKS
CHAMPAIGN      LGT RAIN  45  43  93 SE18      29.62F FOG
DANVILLE*      LGT RAIN  42  40  95 SE10      29.64S
RANTOUL*       LGT RAIN  46  44  95 SE20      29.63S
MATTOON        RAIN      46  44  93 SE14      29.61F FOG
PARIS*         LGT RAIN  45  44  98 SE10G17   29.65F
$$

ILZ079-100>102-230100-
SOUTHWEST ILLINOIS

CITY           SKY/WX    TMP DP  RH WIND       PRES   REMARKS
ALTON          LGT RAIN  48  46  93 SE8       29.55F
BELLEVILLE     CLOUDY    48  48 100 SE8       29.55S
CAHOKIA*       CLOUDY    50  48  93 SE7       29.55S FOG
SPARTA*        DRIZZLE   50  49  98 S7        29.58S
$$

ILZ064>066-069>071-074>076-080>082-084>086-088>090-092>094-230100-
SOUTH-CENTRAL ILLINOIS

CITY           SKY/WX    TMP DP  RH WIND       PRES   REMARKS
CARBONDALE     LGT RAIN  51  49  92 S10       29.59S FOG
6HR MIN TEMP:  49; 6HR MAX TEMP:  51; 6HR PCP:  0.12;

CAIRO*         DRIZZLE   54  54 100 SE12      29.60F
EFFINGHAM*     HVY RAIN  47  45  90 E12       29.62S
MARION         LGT RAIN  52  50  93 S12       29.60S
MT. VERNON     CLOUDY    48  45  87 SE8       29.60S
CENTRALIA*     LGT RAIN  48  46  92 SE8       29.58S
SALEM*         LGT RAIN  50  48  92 SE10G18   29.59S
METROPOLIS*    CLOUDY    52  52 100 SE5       29.61F
$$

ILZ067-068-072-073-078-083-087-091-230100-
SOUTHEAST ILLINOIS

CITY           SKY/WX    TMP DP  RH WIND       PRES   REMARKS
LAWRENCEVILLE  LGT RAIN  49  45  86 SE14      29.65F
FLORA*         DRIZZLE   47  47  97 SE14      29.61S
FAIRFIELD*     CLOUDY    49  47  95 SE13G20   29.60F
HARRISBURG*    CLOUDY    50  50  99 SE9       29.62F
ROBINSON*      LGT RAIN  47  45  93 SE12      29.66F
CARMI*         CLOUDY    51  49  94 SE14      29.62F
$$

ABBREVIATIONS USED IN REMARKS
   TC - TEMPERATURE IN CELSIUS
  WCI - WIND CHILL INDEX
   HX - HEAT INDEX
  VSB - VISIBILITY
$$



USA.gov is the U.S. government's official web portal to all federal, state and local government web resources and services.